| time (UTC) | temp F | wind direction | speed MPH | gust MPH | rain 1hr in | rain 24hr in | rain mn in | humidity % | barometer mb |
| 20260905190204 | 72 | 232 | 2.0 | 5.0 | 0.00 | 0.00 | 0.00 | 72 | 989.9 |
| 20260905185704 | 72 | 247 | 4.0 | 7.0 | 0.00 | 0.00 | 0.00 | 71 | 989.9 |
| 20260905185204 | 69 | 277 | 4.0 | 7.0 | 0.00 | 0.00 | 0.00 | 75 | 989.9 |
| 20260905184704 | 68 | 281 | 3.0 | 6.0 | 0.00 | 0.00 | 0.00 | 80 | 989.9 |
| 20260905184204 | 68 | 320 | 4.0 | 8.0 | 0.00 | 0.00 | 0.00 | 81 | 989.9 |
| 20260905183704 | 68 | 8 | 4.0 | 16.0 | 0.00 | 0.00 | 0.00 | 83 | 989.9 |
| 20260905183203 | 69 | 1 | 7.0 | 16.0 | 0.00 | 0.00 | 0.00 | 80 | 989.9 |
| 20260905182204 | 69 | 319 | 5.0 | 15.0 | 0.00 | 0.00 | 0.00 | 76 | 989.8 |
| 20260905181703 | 69 | 267 | 3.0 | 17.0 | 0.00 | 0.00 | 0.00 | 78 | 989.7 |
| 20260905181203 | 69 | 248 | 5.0 | 16.0 | 0.00 | 0.00 | 0.00 | 81 | 989.7 |
| 20260905180704 | 70 | 4 | 4.0 | 9.0 | 0.00 | 0.00 | 0.00 | 80 | 989.7 |
| 20260905180204 | 71 | 266 | 3.0 | 8.0 | 0.00 | 0.00 | 0.00 | 75 | 989.7 |
| 20260905175704 | 72 | 311 | 3.0 | 8.0 | 0.00 | 0.00 | 0.00 | 70 | 989.8 |
| 20260905175203 | 73 | 282 | 2.0 | 9.0 | 0.00 | 0.00 | 0.00 | 70 | 989.7 |
| 20260905174704 | 73 | 249 | 3.0 | 15.0 | 0.00 | 0.00 | 0.00 | 71 | 989.7 |
| 20260905174204 | 73 | 265 | 2.0 | 7.0 | 0.00 | 0.00 | 0.00 | 68 | 989.7 |
| 20260905173704 | 72 | 275 | 3.0 | 17.0 | 0.00 | 0.00 | 0.00 | 70 | 989.7 |
| 20260905173203 | 72 | 240 | 3.0 | 10.0 | 0.00 | 0.00 | 0.00 | 72 | 989.7 |
| 20260905172703 | 73 | 244 | 3.0 | 9.0 | 0.00 | 0.00 | 0.00 | 71 | 989.7 |
| 20260905172203 | 74 | 265 | 6.0 | 17.0 | 0.00 | 0.00 | 0.00 | 69 | 989.8 |
| 20260905171703 | 75 | 296 | 3.0 | 7.0 | 0.00 | 0.00 | 0.00 | 68 | 989.7 |
| 20260905171204 | 74 | 248 | 2.0 | 12.0 | 0.00 | 0.00 | 0.00 | 69 | 989.7 |
| 20260905170704 | 74 | 254 | 2.0 | 14.0 | 0.00 | 0.00 | 0.00 | 68 | 989.7 |
| 20260905170203 | 73 | 27 | 6.0 | 13.0 | 0.00 | 0.00 | 0.00 | 69 | 989.7 |
| 20260905165703 | 73 | 20 | 5.0 | 14.0 | 0.00 | 0.00 | 0.00 | 69 | 989.8 |
| 20260905165204 | 71 | 20 | 6.0 | 17.0 | 0.00 | 0.00 | 0.00 | 72 | 989.8 |
| 20260905164203 | 71 | 18 | 6.0 | 14.0 | 0.00 | 0.00 | 0.00 | 75 | 989.9 |
| 20260905163704 | 70 | 24 | 8.0 | 17.0 | 0.00 | 0.00 | 0.00 | 74 | 989.9 |
| 20260905163204 | 70 | 15 | 6.0 | 16.0 | 0.00 | 0.00 | 0.00 | 74 | 990.0 |
| 20260905162704 | 70 | 353 | 6.0 | 16.0 | 0.00 | 0.00 | 0.00 | 78 | 990.0 |
| 20260905162204 | 70 | 351 | 6.0 | 16.0 | 0.00 | 0.00 | 0.00 | 77 | 990.0 |
| 20260905161703 | 70 | 333 | 6.0 | 13.0 | 0.00 | 0.00 | 0.00 | 77 | 990.1 |
| 20260905161204 | 70 | 319 | 7.0 | 16.0 | 0.00 | 0.00 | 0.00 | 77 | 990.1 |
| 20260905160703 | 69 | 306 | 7.0 | 18.0 | 0.00 | 0.00 | 0.00 | 77 | 990.1 |
| 20260905160204 | 69 | 313 | 6.0 | 16.0 | 0.00 | 0.00 | 0.00 | 78 | 990.1 |
| 20260905155703 | 69 | 297 | 7.0 | 20.0 | 0.00 | 0.00 | 0.00 | 78 | 990.0 |
| 20260905155204 | 69 | 289 | 5.0 | 21.0 | 0.00 | 0.00 | 0.00 | 78 | 990.1 |
| 20260905154703 | 69 | 297 | 5.0 | 10.0 | 0.00 | 0.00 | 0.00 | 78 | 990.2 |
| 20260905154204 | 69 | 261 | 5.0 | 17.0 | 0.00 | 0.00 | 0.00 | 78 | 990.2 |
| 20260905153704 | 69 | 261 | 10.0 | 17.0 | 0.00 | 0.00 | 0.00 | 78 | 990.1 |
| 20260905153204 | 69 | 246 | 6.0 | 13.0 | 0.00 | 0.00 | 0.00 | 78 | 990.2 |
| 20260905152703 | 68 | 289 | 5.0 | 16.0 | 0.00 | 0.00 | 0.00 | 79 | 990.2 |
| 20260905152204 | 68 | 282 | 4.0 | 13.0 | 0.00 | 0.00 | 0.00 | 79 | 990.3 |
| 20260905151703 | 68 | 308 | 6.0 | 18.0 | 0.00 | 0.00 | 0.00 | 81 | 990.4 |
| 20260905150704 | 68 | 269 | 6.0 | 14.0 | 0.00 | 0.00 | 0.00 | 81 | 990.2 |
| 20260905150203 | 68 | 281 | 7.0 | 22.0 | 0.00 | 0.00 | 0.00 | 82 | 990.2 |
| 20260905145703 | 68 | 311 | 5.0 | 10.0 | 0.00 | 0.00 | 0.00 | 82 | 990.1 |
| 20260905145203 | 68 | 260 | 4.0 | 12.0 | 0.00 | 0.00 | 0.00 | 81 | 990.0 |
| 20260905144704 | 67 | 290 | 6.0 | 13.0 | 0.00 | 0.00 | 0.00 | 84 | 990.0 |
| 20260905144204 | 67 | 291 | 6.0 | 16.0 | 0.00 | 0.00 | 0.00 | 84 | 990.0 |
| 20260905143704 | 67 | 270 | 7.0 | 20.0 | 0.00 | 0.00 | 0.00 | 83 | 990.0 |
| 20260905142703 | 67 | 310 | 10.0 | 20.0 | 0.00 | 0.00 | 0.00 | 86 | 990.1 |
| 20260905142203 | 67 | 271 | 8.0 | 18.0 | 0.00 | 0.00 | 0.00 | 84 | 990.2 |
| 20260905141704 | 67 | 256 | 7.0 | 16.0 | 0.00 | 0.00 | 0.00 | 86 | 990.2 |
| 20260905141205 | 67 | 284 | 7.0 | 20.0 | 0.00 | 0.00 | 0.00 | 84 | 990.2 |
| 20260905140703 | 67 | 288 | 6.0 | 20.0 | 0.00 | 0.00 | 0.00 | 84 | 990.2 |
| 20260905140204 | 66 | 298 | 6.0 | 20.0 | 0.00 | 0.00 | 0.00 | 84 | 990.2 |
| 20260905135704 | 66 | 0 | 7.0 | 22.0 | 0.00 | 0.00 | 0.00 | 84 | 990.1 |
| 20260905135204 | 66 | 293 | 6.0 | 24.0 | 0.00 | 0.00 | 0.00 | 85 | 990.1 |
| 20260905134703 | 65 | 264 | 5.0 | 10.0 | 0.00 | 0.00 | 0.00 | 85 | 990.2 |
| 20260905134204 | 65 | 270 | 6.0 | 10.0 | 0.00 | 0.00 | 0.00 | 86 | 990.1 |
| 20260905133703 | 65 | 274 | 6.0 | 9.0 | 0.00 | 0.00 | 0.00 | 85 | 990.1 |
| 20260905133204 | 65 | 339 | 4.0 | 9.0 | 0.00 | 0.00 | 0.00 | 87 | 990.0 |
| 20260905132703 | 65 | 312 | 5.0 | 12.0 | 0.00 | 0.00 | 0.00 | 87 | 990.0 |
| 20260905132204 | 64 | 231 | 6.0 | 16.0 | 0.00 | 0.00 | 0.00 | 87 | 989.9 |
| 20260905131703 | 64 | 268 | 5.0 | 12.0 | 0.00 | 0.00 | 0.00 | 88 | 989.9 |
| 20260905131204 | 64 | 230 | 5.0 | 8.0 | 0.00 | 0.00 | 0.00 | 88 | 989.9 |
| 20260905130703 | 64 | 243 | 3.0 | 7.0 | 0.00 | 0.00 | 0.00 | 89 | 989.9 |
| 20260905130203 | 64 | 235 | 2.0 | 9.0 | 0.00 | 0.00 | 0.00 | 89 | 989.9 |
| 20260905125703 | 64 | 230 | 5.0 | 12.0 | 0.00 | 0.00 | 0.00 | 89 | 989.9 |
| 20260905125204 | 64 | 219 | 3.0 | 8.0 | 0.00 | 0.00 | 0.00 | 89 | 989.8 |
| 20260905124703 | 64 | 226 | 4.0 | 8.0 | 0.00 | 0.00 | 0.00 | 89 | 989.7 |
| 20260905124204 | 64 | 262 | 4.0 | 8.0 | 0.00 | 0.00 | 0.00 | 89 | 989.7 |
| 20260905123203 | 63 | 232 | 3.0 | 9.0 | 0.00 | 0.00 | 0.00 | 90 | 989.8 |
| 20260905122704 | 63 | 233 | 2.0 | 8.0 | 0.00 | 0.00 | 0.00 | 91 | 989.7 |
| 20260905122203 | 62 | 66 | 3.0 | 5.0 | 0.00 | 0.00 | 0.00 | 93 | 989.6 |
| 20260905121703 | 62 | 59 | 3.0 | 5.0 | 0.00 | 0.00 | 0.00 | 93 | 989.6 |
| 20260905121203 | 61 | 57 | 2.0 | 3.0 | 0.00 | 0.00 | 0.00 | 94 | 989.6 |
| 20260905120704 | 61 | 171 | 2.0 | 6.0 | 0.00 | 0.00 | 0.00 | 95 | 989.5 |
| 20260905120204 | 61 | 184 | 1.0 | 9.0 | 0.00 | 0.00 | 0.00 | 95 | 989.5 |
| 20260905115704 | 60 | 223 | 1.0 | 2.0 | 0.00 | 0.00 | 0.00 | 95 | 989.5 |
| 20260905115203 | 60 | 209 | 1.0 | 3.0 | 0.00 | 0.00 | 0.00 | 95 | 989.5 |
| 20260905114704 | 60 | 217 | 1.0 | 2.0 | 0.00 | 0.00 | 0.00 | 96 | 989.5 |
| 20260905114203 | 60 | 173 | 1.0 | 2.0 | 0.00 | 0.00 | 0.00 | 96 | 989.4 |
| 20260905112704 | 59 | 166 | 1.0 | 2.0 | 0.00 | 0.00 | 0.00 | 98 | 989.4 |
| 20260905111704 | 59 | 153 | 1.0 | 3.0 | 0.00 | 0.00 | 0.00 | 97 | 989.3 |
| 20260905111205 | 58 | 145 | 2.0 | 3.0 | 0.00 | 0.00 | 0.00 | 97 | 989.3 |
| 20260905110703 | 58 | 157 | 1.0 | 2.0 | 0.00 | 0.00 | 0.00 | 98 | 989.2 |
| 20260905110205 | 58 | 143 | 1.0 | 2.0 | 0.00 | 0.00 | 0.00 | 98 | 989.1 |
| 20260905105203 | 58 | 205 | 1.0 | 2.0 | 0.00 | 0.00 | 0.00 | 98 | 989.1 |
| 20260905104203 | 58 | 113 | 1.0 | 2.0 | 0.00 | 0.00 | 0.00 | 97 | 989.0 |
| 20260905103204 | 58 | 83 | 2.0 | 3.0 | 0.00 | 0.00 | 0.00 | 98 | 988.9 |
| 20260905102703 | 58 | 87 | 1.0 | 2.0 | 0.00 | 0.00 | 0.00 | 98 | 988.9 |
| 20260905102203 | 58 | 147 | 2.0 | 5.0 | 0.00 | 0.00 | 0.00 | 98 | 988.9 |
| 20260905101704 | 58 | 113 | 1.0 | 2.0 | 0.00 | 0.00 | 0.00 | 98 | 988.9 |
| 20260905101204 | 58 | 113 | 1.0 | 2.0 | 0.00 | 0.00 | 0.00 | 98 | 988.9 |
| 20260905100704 | 58 | 131 | 2.0 | 3.0 | 0.00 | 0.00 | 0.00 | 98 | 988.9 |
| 20260905100204 | 58 | 133 | 1.0 | 2.0 | 0.00 | 0.00 | 0.00 | 97 | 988.9 |
| 20260905095203 | 58 | 161 | 1.0 | 2.0 | 0.00 | 0.00 | 0.00 | 98 | 988.9 |
| 20260905094703 | 58 | 123 | 1.0 | 2.0 | 0.00 | 0.00 | 0.00 | 98 | 988.9 |
| 20260905094203 | 58 | 152 | 1.0 | 3.0 | 0.00 | 0.00 | 0.00 | 98 | 988.8 |
| 20260905093704 | 57 | 186 | 2.0 | 2.0 | 0.00 | 0.00 | 0.00 | 98 | 988.7 |
| 20260905093203 | 57 | 217 | 1.0 | 2.0 | 0.00 | 0.00 | 0.00 | 98 | 988.7 |
| 20260905092203 | 57 | 158 | 1.0 | 2.0 | 0.00 | 0.00 | 0.00 | 99 | 988.7 |
| 20260905091704 | 57 | 124 | 1.0 | 2.0 | 0.00 | 0.00 | 0.00 | 99 | 988.7 |
| 20260905091203 | 57 | 188 | 1.0 | 3.0 | 0.00 | 0.00 | 0.00 | 99 | 988.7 |
| 20260905090703 | 57 | 85 | 1.0 | 2.0 | 0.00 | 0.00 | 0.00 | 99 | 988.7 |
| 20260905090204 | 56 | 79 | 2.0 | 3.0 | 0.00 | 0.00 | 0.00 | 99 | 988.7 |
| 20260905085704 | 56 | 160 | 1.0 | 3.0 | 0.00 | 0.00 | 0.00 | 99 | 988.7 |
| 20260905085203 | 56 | 222 | 1.0 | 2.0 | 0.00 | 0.00 | 0.00 | 99 | 988.6 |
| 20260905084704 | 56 | 172 | 1.0 | 2.0 | 0.00 | 0.00 | 0.00 | 98 | 988.6 |
| 20260905084205 | 56 | 198 | 1.0 | 3.0 | 0.00 | 0.00 | 0.00 | 98 | 988.6 |
| 20260905083703 | 56 | 201 | 1.0 | 2.0 | 0.00 | 0.00 | 0.00 | 98 | 988.6 |
| 20260905083204 | 57 | 201 | 1.0 | 2.0 | 0.00 | 0.00 | 0.00 | 98 | 988.6 |
| 20260905082703 | 57 | 185 | 1.0 | 2.0 | 0.00 | 0.00 | 0.00 | 98 | 988.6 |
| 20260905081704 | 57 | 176 | 2.0 | 3.0 | 0.00 | 0.00 | 0.00 | 98 | 988.6 |
| 20260905081204 | 57 | 155 | 1.0 | 2.0 | 0.00 | 0.00 | 0.00 | 98 | 988.7 |
| 20260905080703 | 57 | 134 | 1.0 | 3.0 | 0.00 | 0.00 | 0.00 | 98 | 988.6 |
| 20260905080204 | 57 | 86 | 1.0 | 2.0 | 0.00 | 0.00 | 0.00 | 98 | 988.6 |
| 20260905075704 | 57 | 209 | 1.0 | 2.0 | 0.00 | 0.00 | 0.00 | 98 | 988.6 |
| 20260905075203 | 57 | 160 | 1.0 | 2.0 | 0.00 | 0.00 | 0.00 | 98 | 988.6 |
| 20260905074703 | 57 | 119 | 1.0 | 3.0 | 0.00 | 0.00 | 0.00 | 98 | 988.5 |
| 20260905074203 | 57 | 97 | 1.0 | 2.0 | 0.00 | 0.00 | 0.00 | 98 | 988.5 |
| 20260905073703 | 57 | 75 | 1.0 | 3.0 | 0.00 | 0.00 | 0.00 | 98 | 988.5 |
| 20260905073203 | 57 | 180 | 2.0 | 3.0 | 0.00 | 0.00 | 0.00 | 98 | 988.5 |
| 20260905072703 | 57 | 155 | 1.0 | 3.0 | 0.00 | 0.00 | 0.00 | 98 | 988.5 |
| 20260905071704 | 58 | 205 | 1.0 | 2.0 | 0.00 | 0.00 | 0.00 | 98 | 988.5 |
| 20260905071203 | 58 | 192 | 1.0 | 3.0 | 0.00 | 0.00 | 0.00 | 98 | 988.6 |
| 20260905070704 | 58 | 220 | 2.0 | 3.0 | 0.00 | 0.00 | 0.00 | 98 | 988.7 |
| 20260905070203 | 58 | 195 | 1.0 | 3.0 | 0.00 | 0.00 | 0.00 | 98 | 988.7 |
| 20260905065704 | 58 | 219 | 1.0 | 2.0 | 0.00 | 0.00 | 0.00 | 98 | 988.8 |
| 20260905065203 | 58 | 43 | 2.0 | 3.0 | 0.00 | 0.00 | 0.00 | 97 | 988.8 |
| 20260905064704 | 58 | 165 | 2.0 | 3.0 | 0.00 | 0.00 | 0.00 | 97 | 988.9 |
| 20260905064203 | 58 | 150 | 1.0 | 3.0 | 0.00 | 0.00 | 0.00 | 97 | 989.0 |
| 20260905063704 | 58 | 206 | 2.0 | 3.0 | 0.00 | 0.00 | 0.00 | 97 | 989.0 |
| 20260905063204 | 58 | 67 | 2.0 | 3.0 | 0.00 | 0.00 | 0.00 | 96 | 989.0 |
| 20260905062703 | 59 | 312 | 3.0 | 3.0 | 0.00 | 0.00 | 0.00 | 96 | 989.0 |
| 20260905062204 | 59 | 311 | 3.0 | 5.0 | 0.00 | 0.00 | 0.00 | 95 | 989.0 |
| 20260905061703 | 59 | 313 | 2.0 | 3.0 | 0.00 | 0.00 | 0.00 | 96 | 989.0 |
| 20260905060703 | 59 | 311 | 2.0 | 3.0 | 0.00 | 0.00 | 0.00 | 96 | 989.1 |
| 20260905060204 | 59 | 311 | 3.0 | 3.0 | 0.00 | 0.00 | 0.00 | 95 | 989.1 |
| 20260905055703 | 59 | 328 | 2.0 | 3.0 | 0.00 | 0.00 | 0.00 | 94 | 989.1 |
| 20260905055204 | 60 | 311 | 2.0 | 3.0 | 0.00 | 0.00 | 0.00 | 94 | 989.0 |
| 20260905054204 | 59 | 312 | 2.0 | 3.0 | 0.00 | 0.00 | 0.00 | 95 | 989.0 |
| 20260905053703 | 59 | 311 | 2.0 | 3.0 | 0.00 | 0.00 | 0.00 | 95 | 988.9 |
| 20260905053203 | 59 | 312 | 2.0 | 3.0 | 0.00 | 0.00 | 0.00 | 95 | 989.0 |
| 20260905052703 | 60 | 312 | 2.0 | 3.0 | 0.00 | 0.00 | 0.00 | 93 | 989.0 |
| 20260905051703 | 60 | 312 | 2.0 | 3.0 | 0.00 | 0.00 | 0.00 | 93 | 989.0 |
| 20260905051204 | 60 | 312 | 2.0 | 3.0 | 0.00 | 0.00 | 0.00 | 93 | 989.0 |
| 20260905050704 | 60 | 312 | 2.0 | 3.0 | 0.00 | 0.00 | 0.00 | 93 | 989.0 |
| 20260905050203 | 60 | 313 | 2.0 | 3.0 | 0.00 | 0.00 | 0.00 | 93 | 989.0 |
| 20260905045704 | 60 | 312 | 2.0 | 3.0 | 0.00 | 0.00 | 0.00 | 93 | 989.0 |
| 20260905045203 | 61 | 311 | 2.0 | 3.0 | 0.00 | 0.00 | 0.00 | 92 | 989.0 |
| 20260905044703 | 61 | 310 | 4.0 | 6.0 | 0.00 | 0.00 | 0.00 | 91 | 989.1 |
| 20260905044204 | 61 | 309 | 3.0 | 6.0 | 0.00 | 0.00 | 0.00 | 92 | 989.1 |
| 20260905043703 | 60 | 310 | 4.0 | 7.0 | 0.00 | 0.00 | 0.00 | 92 | 989.2 |
| 20260905043203 | 61 | 309 | 5.0 | 7.0 | 0.00 | 0.00 | 0.00 | 91 | 989.2 |
| 20260905042703 | 61 | 309 | 5.0 | 7.0 | 0.00 | 0.00 | 0.00 | 91 | 989.2 |
| 20260905042204 | 61 | 309 | 5.0 | 7.0 | 0.00 | 0.00 | 0.00 | 90 | 989.2 |
| 20260905041203 | 62 | 310 | 5.0 | 7.0 | 0.00 | 0.00 | 0.00 | 90 | 989.3 |
| 20260905040703 | 62 | 308 | 5.0 | 6.0 | 0.00 | 0.00 | 0.00 | 89 | 989.2 |
| 20260905040203 | 62 | 309 | 5.0 | 7.0 | 0.00 | 0.00 | 0.00 | 89 | 989.3 |
| 20260905035204 | 62 | 308 | 5.0 | 7.0 | 0.00 | 0.00 | 0.00 | 89 | 989.2 |
| 20260905034203 | 63 | 309 | 5.0 | 7.0 | 0.00 | 0.00 | 0.00 | 87 | 989.2 |
| 20260905033703 | 63 | 311 | 4.0 | 5.0 | 0.00 | 0.00 | 0.00 | 87 | 989.1 |
| 20260905032704 | 63 | 310 | 3.0 | 5.0 | 0.00 | 0.00 | 0.00 | 86 | 989.0 |
| 20260905032203 | 64 | 310 | 3.0 | 5.0 | 0.00 | 0.00 | 0.00 | 85 | 988.9 |
| 20260905031704 | 64 | 311 | 4.0 | 5.0 | 0.00 | 0.00 | 0.00 | 84 | 988.8 |
| 20260905031204 | 64 | 312 | 3.0 | 5.0 | 0.00 | 0.00 | 0.00 | 85 | 988.9 |
| 20260905030703 | 64 | 308 | 3.0 | 5.0 | 0.00 | 0.00 | 0.00 | 84 | 988.9 |
| 20260905030204 | 64 | 302 | 3.0 | 5.0 | 0.00 | 0.00 | 0.00 | 83 | 989.1 |
| 20260905025703 | 64 | 303 | 3.0 | 5.0 | 0.00 | 0.00 | 0.00 | 83 | 989.2 |
| 20260905025203 | 64 | 279 | 3.0 | 5.0 | 0.00 | 0.00 | 0.00 | 82 | 989.3 |
| 20260905024704 | 64 | 288 | 3.0 | 5.0 | 0.00 | 0.00 | 0.00 | 82 | 989.3 |
| 20260905024203 | 65 | 263 | 3.0 | 7.0 | 0.00 | 0.00 | 0.00 | 82 | 989.2 |
| 20260905023203 | 65 | 259 | 3.0 | 6.0 | 0.00 | 0.00 | 0.00 | 82 | 989.2 |
| 20260905022704 | 65 | 255 | 3.0 | 9.0 | 0.00 | 0.00 | 0.00 | 82 | 989.2 |
| 20260905022203 | 65 | 238 | 7.0 | 10.0 | 0.00 | 0.00 | 0.00 | 82 | 989.3 |
| 20260905021704 | 66 | 244 | 3.0 | 9.0 | 0.00 | 0.00 | 0.00 | 81 | 989.4 |
| 20260905021204 | 66 | 233 | 5.0 | 8.0 | 0.00 | 0.00 | 0.00 | 80 | 989.3 |
| 20260905020703 | 66 | 261 | 5.0 | 12.0 | 0.00 | 0.00 | 0.00 | 80 | 989.4 |
| 20260905015203 | 66 | 275 | 3.0 | 8.0 | 0.00 | 0.00 | 0.00 | 80 | 989.4 |
| 20260905014704 | 66 | 268 | 3.0 | 10.0 | 0.00 | 0.00 | 0.00 | 80 | 989.4 |
| 20260905014203 | 66 | 303 | 6.0 | 10.0 | 0.00 | 0.00 | 0.00 | 80 | 989.4 |
| 20260905013704 | 66 | 240 | 3.0 | 9.0 | 0.00 | 0.00 | 0.00 | 81 | 989.5 |
| 20260905012703 | 67 | 298 | 5.0 | 12.0 | 0.00 | 0.00 | 0.00 | 81 | 989.6 |
| 20260905012204 | 67 | 218 | 2.0 | 7.0 | 0.00 | 0.00 | 0.00 | 82 | 989.5 |
| 20260905011703 | 67 | 246 | 2.0 | 7.0 | 0.00 | 0.00 | 0.00 | 81 | 989.5 |
| 20260905011203 | 67 | 227 | 3.0 | 12.0 | 0.00 | 0.00 | 0.00 | 81 | 989.5 |
| 20260905010704 | 67 | 268 | 7.0 | 12.0 | 0.00 | 0.00 | 0.00 | 80 | 989.5 |
| 20260905005703 | 67 | 268 | 4.0 | 9.0 | 0.00 | 0.00 | 0.00 | 81 | 989.4 |
| 20260905005204 | 67 | 260 | 3.0 | 8.0 | 0.00 | 0.00 | 0.00 | 81 | 989.5 |
| 20260905003704 | 67 | 288 | 4.0 | 7.0 | 0.00 | 0.00 | 0.00 | 81 | 989.4 |
| 20260905003203 | 68 | 276 | 3.0 | 6.0 | 0.00 | 0.00 | 0.00 | 80 | 989.4 |
| 20260905002704 | 68 | 280 | 5.0 | 7.0 | 0.00 | 0.00 | 0.00 | 80 | 989.4 |
| 20260905002204 | 68 | 284 | 3.0 | 7.0 | 0.00 | 0.00 | 0.00 | 79 | 989.3 |
| 20260905001703 | 68 | 281 | 2.0 | 8.0 | 0.00 | 0.00 | 0.00 | 79 | 989.3 |
| 20260905001204 | 68 | 288 | 3.0 | 8.0 | 0.00 | 0.00 | 0.00 | 78 | 989.2 |
| 20260905000703 | 68 | 260 | 2.0 | 8.0 | 0.00 | 0.00 | 0.00 | 78 | 989.3 |
| 20260905000204 | 69 | 247 | 4.0 | 7.0 | 0.00 | 0.00 | 0.00 | 78 | 989.2 |
| 20260904235703 | 69 | 269 | 4.0 | 8.0 | 0.00 | 0.00 | 0.00 | 76 | 989.1 |
| 20260904234703 | 69 | 329 | 2.0 | 6.0 | 0.00 | 0.00 | 0.00 | 80 | 988.9 |
| 20260904234204 | 69 | 14 | 2.0 | 5.0 | 0.00 | 0.00 | 0.00 | 80 | 988.8 |
| 20260904233703 | 69 | 333 | 2.0 | 5.0 | 0.00 | 0.00 | 0.00 | 79 | 988.8 |
| 20260904232203 | 69 | 51 | 1.0 | 3.0 | 0.00 | 0.00 | 0.00 | 82 | 988.6 |
| 20260904231703 | 70 | 243 | 1.0 | 3.0 | 0.00 | 0.00 | 0.00 | 82 | 988.6 |
| 20260904231203 | 70 | 1 | 1.0 | 2.0 | 0.00 | 0.00 | 0.00 | 82 | 988.6 |
| 20260904230703 | 70 | 343 | 1.0 | 2.0 | 0.00 | 0.00 | 0.00 | 81 | 988.6 |
| 20260904230203 | 70 | 339 | 1.0 | 2.0 | 0.00 | 0.00 | 0.00 | 82 | 988.7 |
| 20260904225204 | 70 | 330 | 1.0 | 3.0 | 0.00 | 0.00 | 0.00 | 82 | 988.6 |
| 20260904224703 | 70 | 306 | 1.0 | 2.0 | 0.00 | 0.00 | 0.00 | 82 | 988.6 |
| 20260904224203 | 71 | 234 | 1.0 | 2.0 | 0.00 | 0.00 | 0.00 | 81 | 988.6 |
| 20260904223703 | 71 | 326 | 1.0 | 3.0 | 0.00 | 0.00 | 0.00 | 80 | 988.6 |
| 20260904223204 | 71 | 314 | 1.0 | 2.0 | 0.00 | 0.00 | 0.00 | 80 | 988.6 |
| 20260904222704 | 72 | 311 | 1.0 | 2.0 | 0.00 | 0.00 | 0.00 | 79 | 988.6 |
| 20260904222203 | 72 | 312 | 2.0 | 2.0 | 0.00 | 0.00 | 0.00 | 78 | 988.6 |
| 20260904221703 | 73 | 46 | 1.0 | 2.0 | 0.00 | 0.00 | 0.00 | 78 | 988.6 |
| 20260904221203 | 73 | 217 | 1.0 | 2.0 | 0.00 | 0.00 | 0.00 | 75 | 988.6 |
| 20260904220704 | 74 | 4 | 1.0 | 2.0 | 0.00 | 0.00 | 0.00 | 76 | 988.6 |
| 20260904220203 | 74 | 358 | 0.0 | 1.0 | 0.00 | 0.00 | 0.00 | 76 | 988.6 |
| 20260904215203 | 75 | 31 | 0.0 | 1.0 | 0.00 | 0.00 | 0.00 | 74 | 988.5 |
| 20260904214703 | 75 | 331 | 0.0 | 1.0 | 0.00 | 0.00 | 0.00 | 73 | 988.6 |
| 20260904214203 | 75 | 8 | 0.0 | 1.0 | 0.00 | 0.00 | 0.00 | 73 | 988.6 |
| 20260904213703 | 75 | 317 | 0.0 | 1.0 | 0.00 | 0.00 | 0.00 | 73 | 988.6 |
| 20260904213204 | 75 | 222 | 0.0 | 1.0 | 0.00 | 0.00 | 0.00 | 74 | 988.5 |
| 20260904212704 | 75 | 333 | 0.0 | 1.0 | 0.00 | 0.00 | 0.00 | 73 | 988.6 |
| 20260904212204 | 76 | 166 | 0.0 | 1.0 | 0.00 | 0.00 | 0.00 | 73 | 988.6 |
| 20260904211704 | 76 | 31 | 0.0 | 1.0 | 0.00 | 0.00 | 0.00 | 72 | 988.6 |
| 20260904211203 | 76 | 9 | 1.0 | 1.0 | 0.00 | 0.00 | 0.00 | 66 | 988.8 |
| 20260904210704 | 76 | 222 | 1.0 | 1.0 | 0.00 | 0.00 | 0.00 | 68 | 988.8 |
| 20260904210204 | 76 | 327 | 0.0 | 1.0 | 0.00 | 0.00 | 0.00 | 72 | 988.8 |
| 20260904204703 | 76 | 337 | 0.0 | 1.0 | 0.00 | 0.00 | 0.00 | 71 | 988.7 |
| 20260904204203 | 76 | 6 | 0.0 | 1.0 | 0.00 | 0.00 | 0.00 | 68 | 988.7 |
| 20260904202704 | 77 | 14 | 0.0 | 2.0 | 0.00 | 0.00 | 0.00 | 63 | 988.8 |
| 20260904202203 | 77 | 288 | 1.0 | 2.0 | 0.00 | 0.00 | 0.00 | 62 | 988.8 |
| 20260904201703 | 77 | 281 | 1.0 | 2.0 | 0.00 | 0.00 | 0.00 | 62 | 988.8 |
| 20260904200203 | 78 | 298 | 2.0 | 3.0 | 0.00 | 0.00 | 0.00 | 60 | 988.8 |
| 20260904195203 | 77 | 7 | 1.0 | 5.0 | 0.00 | 0.00 | 0.00 | 61 | 988.7 |
| 20260904194704 | 78 | 273 | 1.0 | 6.0 | 0.00 | 0.00 | 0.00 | 61 | 988.8 |
| 20260904194203 | 78 | 358 | 2.0 | 3.0 | 0.00 | 0.00 | 0.00 | 59 | 988.8 |
| 20260904193204 | 78 | 263 | 0.0 | 2.0 | 0.00 | 0.00 | 0.00 | 60 | 988.7 |
| 20260904192206 | 79 | 301 | 1.0 | 1.0 | 0.00 | 0.00 | 0.00 | 58 | 988.8 |
| 20260904191704 | 79 | 318 | 1.0 | 2.0 | 0.00 | 0.00 | 0.00 | 58 | 988.8 |